User: anonymous   Login
Location: Unspecified
(35.6961°N, 0.0000°E)
Time: 17:57:14
(UTC+00:00)
Language:

NOAA 18 - Orbit

View from above orbital plane
View from above orbital plane
View from above satellite
View from above satellite

Ground track
Ground track

The orbit data is extracted from the following two-line orbital elements,

1 28654U 05018A   19170.84042685 +.00000091 +00000-0 +74432-4 0  9998
2 28654 099.0954 217.8276 0014569 170.3726 189.7727 14.12431965725581
Epoch (UTC): 19 June 2019 20:10:12
Eccentricity: 0.0014569
inclination: 99.0954°
perigee height: 840 km
apogee height: 861 km
right ascension of ascending node: 217.8276°
argument of perigee: 170.3726°
revolutions per day: 14.12431965
mean anomaly at epoch: 189.7727°
orbit number at epoch: 72558

The dashed part of the orbit path shows where the satellite is in the earth's shadow,  

DLR